Regional Weather Roundup
Issued by NWS

Home | Current Version | Previous Version | Text Only | Print | Product List | Glossary Off
Versions: 1 2 3 4 5 6 7 8 9 10 11 12 13 14 15 16 17 18 19 20 21 22 23 24 25 26 27 28 29 30 31 32 33 34 35 36 37 38 39 40 41 42 43 44 45 46 47 48 49 50

000
ASUS43 KFSD 252010
RWRSD

WEATHER ROUNDUP FOR SOUTH DAKOTA
NATIONAL WEATHER SERVICE SIOUX FALLS SD
200 PM CST THU DEC 25 2014

NOTE: "FAIR" INDICATES FEW OR NO CLOUDS BELOW 12,000 FEET WITH NO
SIGNIFICANT WEATHER AND/OR OBSTRUCTIONS TO VISIBILITY.


SDZ001>005-009-010-012>017-252100-
NORTHWEST AND NORTH CENTRAL SOUTH DAKOTA

CITY           SKY/WX    TMP DP  RH WIND       PRES   REMARKS
BUFFALO          N/A     26  20  77 N14       29.73R WCI  14
FAITH            N/A     28  21  75 N18       29.77R WCI  15
MOBRIDGE       CLOUDY    30  25  81 N12       29.76S WCI  20
$$

SDZ012>016-024>037-041>051-057-063-072>074-252100-
SOUTHWEST AND SOUTH CENTRAL SOUTH DAKOTA

CITY           SKY/WX    TMP DP  RH WIND       PRES   REMARKS
RAPID CTY ARPT LGT SNOW  26  23  88 N18       29.75R VSB 3/4 WCI  13
PIERRE         CLOUDY    30  27  88 N18       29.74R WCI  18
CUSTER         LGT SNOW  22  16  78 NE12G22   29.60S WCI  10
ELLSWORTH AFB  FLURRIES  26  24  94 N16       29.74S WCI  14
PHILIP         LGT SNOW  30  25  81 N21       29.75R WCI  17
PINE RIDGE     LGT SNOW  29  25  85 NE17      29.67R VSB 3/4 WCI  17
SPEARFISH      LGT SNOW  23  21  93 N6        29.77R WCI  16
WINNER         LGT SNOW  31  28  89 N21       29.67R FOG     WCI  18
$$

SDZ004>011-016>023-039-040-252100-
NORTHEAST SOUTH DAKOTA

CITY           SKY/WX    TMP DP  RH WIND       PRES   REMARKS
ABERDEEN       CLOUDY    30  24  78 N17       29.78R WCI  18
WATERTOWN      LGT SNOW  31  27  85 NE8       29.70S FOG     WCI  23
SISSETON         N/A     27  25  92 N14       29.76R WCI  16
$$

SDZ017-020-022-023-036>040-048>070-252100-
SOUTHEAST SOUTH DAKOTA

CITY           SKY/WX    TMP DP  RH WIND       PRES   REMARKS
SIOUX FALLS    CLOUDY    36  29  75 NE17      29.64F
HURON          LGT SNOW  29  26  89 N17       29.72S VSB 1   WCI  17
CHAMBERLAIN    LGT SNOW  30  28  90 N15       29.69S WCI  19
MITCHELL       CLOUDY    33  31  92 N16       29.68S WCI  23
YANKTON        MOSUNNY   37  28  70 NE12      29.62R
$$

ABBREVIATIONS USED IN REMARKS
   TC - TEMPERATURE IN CELSIUS
  WCI - WIND CHILL INDEX
   HX - HEAT INDEX
  VSB - VISIBILITY




USA.gov is the U.S. government's official web portal to all federal, state and local government web resources and services.